CHINASAT 26 (ZX 26) (55686 NORAD) Tracking and Keplerian Element Data

This shows tracking and keplerian element data for the satellite.

Feedback or suggestion? Click here.




ElementValue
Catalog55686
NameCHINASAT 26 (ZX 26)
Epoch Orbit19
Epoch Day62.72312155
Epoch Year2023
RAAN30.8468
Inclination0.0229
Eccentricity0.0006495
Argument of Perigee76.695
Mean Anonmoly79.012
Mean Motion1.00196613
Decay Rate-3.62E-06
L11 55686U 23023A 23062.72312155 -.00000362 00000+0 00000+0 0 9999
L22 55686 0.0229 30.8468 0006495 76.6950 79.0120 1.00196613 197



Live tracking and technical data element details for CHINASAT 26 (ZX 26) (NORAD 55686). CHINASAT 26 (ZX 26) can be tracked NOW for your location showing map with azimuth and elevation plus other details from your city location.







IsCatalogInMostPopularTable: catalog: 55686, numindb: 3
Update: records affected: 1



GetName: 55686 CHINASAT 26 (ZX 26)

Hit Count: updated at: Wed, 22 Mar 2023 15:41:25 GMT